Weather History for KAZE - November, 2012

Change the Weather History Date:

Sunday, November 4, 2012

  Actual Average Record
Temperature  
Mean Temperature 69 °F -  
Max Temperature 82 °F 84 °F 95 °F (2013)
Min Temperature 56 °F 54 °F 40 °F (2014)
Cooling Degree Days 4    
Growing Degree Days 19 (Base 50)    
Moisture  
Dew Point 58 °F    
Average Humidity 71    
Maximum Humidity 100    
Minimum Humidity 37    
Precipitation  
Precipitation 0.00 in - - ()
Sea Level Pressure  
Sea Level Pressure 30.00 in    
Wind  
Wind Speed 2 mph ()    
Max Wind Speed 9 mph    
Max Gust Speed 17 mph    
Visibility 9.7 miles    
Events      
Averages and records for this station are not official NWS values.
T = Trace of Precipitation, MM = Missing Value Source: Averaged Metar Reports

Daily Weather History Graph

Daily Weather History Graph

Search for Another Location

Airport or City:

Trip Planner

Search our weather history database for the weather conditions in past years. The results will help you decide how hot, cold, wet, or windy it might be!

Date:

Astronomy

Nov. 04, 2012 Rise Set
Actual Time 6:49 AM EST 5:37 PM EST
Civil Twilight 6:24 AM EST 6:03 PM EST
Nautical Twilight 5:55 AM EST 6:32 PM EST
Astronomical Twilight 5:26 AM EST 7:00 PM EST
Moon 10:17 PM EST (11/4) 11:29 AM EST (11/4)
Length of Visible Light 11h 38m
Length of Day
10h 48m
Waning Gibbous, 72% of the Moon is Illuminated
Nov 4
Waning Gibbous
Nov 6
Last Quarter
Nov 13
New
Nov 20
First Quarter
Nov 28
Full

Hourly Weather History & Observations

Time (EST) Temp. Heat Index Dew Point Humidity Pressure Visibility Wind Dir Wind Speed Gust Speed Precip Events Conditions
12:15 AM 62.2 °F - 58.1 °F 86% 30.04 in 10.0 mi Calm Calm - N/A   Clear
12:35 AM 62.4 °F - 58.1 °F 86% 30.04 in 10.0 mi Calm Calm - N/A   Clear
12:55 AM 63.0 °F - 58.3 °F 85% 30.05 in 10.0 mi Calm Calm - N/A   Clear
1:15 AM 63.0 °F - 58.5 °F 85% 30.05 in 10.0 mi Calm Calm - N/A   Clear
1:35 AM 62.2 °F - 58.5 °F 87% 30.04 in 10.0 mi Calm Calm - N/A   Clear
1:55 AM 61.9 °F - 58.6 °F 89% 30.04 in 10.0 mi Calm Calm - N/A   Clear
1:15 AM 61.9 °F - 59.4 °F 91% 30.04 in 10.0 mi SW 3.5 mph - N/A   Clear
1:35 AM 62.2 °F - 60.1 °F 93% 30.04 in 10.0 mi Calm Calm - N/A   Clear
2:15 AM 61.7 °F - 60.6 °F 96% 30.04 in 10.0 mi Calm Calm - N/A   Clear
2:35 AM 61.7 °F - 60.6 °F 96% 30.04 in 10.0 mi SW 4.6 mph - N/A   Clear
2:55 AM 62.1 °F - 60.8 °F 96% 30.04 in 10.0 mi WSW 3.5 mph - N/A   Clear
3:15 AM 62.2 °F - 60.8 °F 95% 30.04 in 10.0 mi WSW 3.5 mph - N/A   Clear
3:35 AM 61.9 °F - 60.6 °F 96% 30.04 in 10.0 mi SW 3.5 mph - N/A   Clear
3:55 AM 61.7 °F - 60.6 °F 96% 30.03 in 10.0 mi WSW 3.5 mph - N/A   Clear
4:15 AM 61.7 °F - 60.6 °F 96% 30.04 in 10.0 mi WSW 3.5 mph - N/A   Clear
4:35 AM 61.2 °F - 60.4 °F 97% 30.04 in 10.0 mi SW 3.5 mph - N/A   Clear
4:55 AM 61.0 °F - 60.3 °F 97% 30.04 in 10.0 mi WSW 3.5 mph - N/A   Clear
5:15 AM 60.8 °F - 60.3 °F 98% 30.04 in 10.0 mi Calm Calm - N/A   Clear
5:35 AM - - - N/A% 30.04 in 10.0 mi Calm Calm - N/A   Clear
5:55 AM 59.5 °F - 59.5 °F 100% 30.04 in 10.0 mi Calm Calm - N/A   Clear
6:15 AM 59.0 °F - 59.0 °F 100% 30.04 in 10.0 mi Calm Calm - N/A   Clear
6:35 AM 57.9 °F - 57.9 °F 100% 30.04 in 7.0 mi Calm Calm - N/A   Clear
6:55 AM 57.0 °F - 57.0 °F 100% 30.04 in 3.0 mi Calm Calm - N/A   Clear
7:15 AM 56.5 °F - 56.7 °F 100% 30.05 in 2.0 mi Calm Calm - N/A   Clear
7:35 AM 57.6 °F - 57.7 °F 100% 30.05 in 10.0 mi Calm Calm - N/A   Clear
7:55 AM 60.1 °F - 60.1 °F 100% 30.06 in 10.0 mi Calm Calm - N/A   Clear
8:15 AM 63.1 °F - 61.3 °F 94% 30.06 in 10.0 mi WSW 3.5 mph - N/A   Clear
8:35 AM 65.3 °F - 62.2 °F 90% 30.06 in 10.0 mi Calm Calm - N/A   Clear
8:55 AM 67.1 °F - 62.2 °F 84% 30.06 in 10.0 mi Calm Calm - N/A   Clear
9:15 AM 69.3 °F - 62.4 °F 79% 30.06 in 10.0 mi Calm Calm - N/A   Clear
9:35 AM 70.9 °F - 62.2 °F 74% 30.05 in 10.0 mi Calm Calm - N/A   Clear
9:55 AM 72.7 °F - 62.2 °F 70% 30.04 in 10.0 mi Calm Calm - N/A   Clear
10:15 AM 74.3 °F - 61.9 °F 65% 30.04 in 10.0 mi SW 3.5 mph - N/A   Clear
10:35 AM 76.3 °F - 61.0 °F 59% 30.04 in 10.0 mi West 5.8 mph - N/A   Clear
10:55 AM 77.0 °F - 61.0 °F 58% 30.03 in 10.0 mi West 6.9 mph - N/A   Clear
11:15 AM 77.9 °F - 60.6 °F 55% 30.02 in 10.0 mi WSW 6.9 mph - N/A   Clear
11:35 AM 78.8 °F - 60.6 °F 54% 30.01 in 10.0 mi West 5.8 mph - N/A   Clear
11:55 AM 79.3 °F - 59.2 °F 50% 30.01 in 10.0 mi West 6.9 mph - N/A   Clear
12:15 PM 80.1 °F 80.7 °F 58.8 °F 48% 30.00 in 10.0 mi West 5.8 mph 16.1 mph N/A   Clear
12:35 PM 81.0 °F 81.0 °F 57.4 °F 44% 29.99 in 10.0 mi WSW 9.2 mph - N/A   Clear
12:55 PM 81.5 °F 81.3 °F 56.1 °F 42% 29.98 in 10.0 mi SW 8.1 mph 17.3 mph N/A   Clear
1:15 PM 82.0 °F 81.6 °F 56.1 °F 41% 29.97 in 10.0 mi SW 6.9 mph - N/A   Clear
1:35 PM 81.3 °F 81.1 °F 55.9 °F 42% 29.96 in 10.0 mi SW 4.6 mph - N/A   Clear
1:55 PM 82.4 °F 81.9 °F 56.5 °F 41% 29.95 in 10.0 mi SW 5.8 mph 16.1 mph N/A   Clear
2:15 PM 82.6 °F 81.8 °F 55.4 °F 39% 29.95 in 10.0 mi WSW 8.1 mph - N/A   Clear
2:35 PM 82.0 °F 81.3 °F 53.8 °F 38% 29.94 in 10.0 mi WSW 6.9 mph - N/A   Clear
2:55 PM 81.1 °F 80.6 °F 53.4 °F 38% 29.94 in 10.0 mi WSW 8.1 mph - N/A   Scattered Clouds
3:15 PM 81.7 °F 81.0 °F 53.4 °F 38% 29.93 in 10.0 mi WSW 5.8 mph - N/A   Clear
3:35 PM 81.1 °F - 52.5 °F 37% 29.93 in 10.0 mi SW 9.2 mph - N/A   Clear
3:55 PM 81.7 °F 80.9 °F 53.1 °F 37% 29.93 in 10.0 mi WSW 4.6 mph - N/A   Clear
4:15 PM 80.4 °F - 52.7 °F 38% 29.93 in 10.0 mi WSW 6.9 mph 16.1 mph N/A   Clear
4:35 PM 79.3 °F - 53.4 °F 41% 29.93 in 10.0 mi WNW 3.5 mph - N/A   Mostly Cloudy
4:55 PM 78.8 °F - 54.9 °F 44% 29.93 in 10.0 mi West 6.9 mph - N/A   Scattered Clouds
5:15 PM 77.2 °F - 55.9 °F 48% 29.93 in 10.0 mi Calm Calm - N/A   Scattered Clouds
5:35 PM 75.2 °F - 56.7 °F 52% 29.93 in 10.0 mi Calm Calm - N/A   Scattered Clouds
5:55 PM 72.3 °F - 57.4 °F 59% 29.94 in 10.0 mi Calm Calm - N/A   Scattered Clouds
6:15 PM 70.2 °F - 57.4 °F 64% 29.94 in 10.0 mi Calm Calm - N/A   Clear
6:35 PM 69.3 °F - 57.6 °F 66% 29.94 in 10.0 mi Calm Calm - N/A   Clear
6:55 PM 67.6 °F - 57.4 °F 70% 29.95 in 10.0 mi Calm Calm - N/A   Clear
7:15 PM 66.2 °F - 57.4 °F 73% 29.94 in 10.0 mi Calm Calm - N/A   Clear
7:35 PM 65.3 °F - 57.6 °F 76% 29.95 in 10.0 mi Calm Calm - N/A   Clear
7:55 PM 67.3 °F - 57.6 °F 71% 29.95 in 10.0 mi Calm Calm - N/A   Mostly Cloudy
8:15 PM 66.9 °F - 58.3 °F 74% 29.95 in 10.0 mi Calm Calm - N/A   Scattered Clouds
8:35 PM 67.5 °F - 58.1 °F 72% 29.96 in 10.0 mi Calm Calm - N/A   Clear
8:55 PM 67.5 °F - 57.9 °F 71% 29.95 in 10.0 mi Calm Calm - N/A   Clear
9:15 PM 68.4 °F - 57.0 °F 67% 29.95 in 10.0 mi West 3.5 mph - N/A   Clear
9:35 PM 68.7 °F - 56.3 °F 64% 29.96 in 10.0 mi WNW 3.5 mph - N/A   Clear
9:55 PM 68.4 °F - 56.1 °F 65% 29.96 in 10.0 mi Calm Calm - N/A   Clear
10:15 PM 67.3 °F - 56.1 °F 67% 29.96 in 10.0 mi WNW 3.5 mph - N/A   Scattered Clouds
10:35 PM 66.4 °F - 55.8 °F 69% 29.97 in 10.0 mi WNW 4.6 mph - N/A   Clear
10:55 PM 66.0 °F - 55.0 °F 68% 29.97 in 10.0 mi NW 4.6 mph - N/A   Clear